Reflectivity
-20 -20 -20 -20 -20 -20 -20 -20 -20 -20 -20 -20 -20 -20 -20 -20 -20 -20 -20 -20 -20 -20 -20 -20 -20 -20 -20 -20 -20 -20 -20 -20 -20 -20 -20 -20 -20 -20 -20 -20 -20 -20 -20 -20 -20
-20 -20 -20 -20 -20 -20 -20 -20 -20 -20 -20 -20 -20 -20 -20 -20 -20 -20 -20 -20 -20 -20 -20 -20 -20 -20 -20 -20 -20 -20 -20 -20 -20 -20 -20 -20 -20 -20 -20 -20 -20 -20 -20 -20 -20
-20 -20 -20 -20 -20 -20 -20 -20 -20 -20 -20 -20 -20 -20 -20 -20 -20 -20 -20 -20 -20 -20 -20 -20 -20 -20 -20 -20 -20 -20 -20 -20 -20 -20 -20 -20 -20 -20 -20 -20 -20 -20 -20 -20 -20
-20 -20 -20 -20 -20 -20 -20 -20 -20 -20 -20 -20 -20 -20 -20 -20 -20 -20 -20 -20 -20 -20 -20 -20 -20 -20 -20 -20 -20 -20 -20 -20 -20 -20 -20 -20 -20 -20 -20 -20 -20 -20 -20 -20 -20
-20 -20 -20 -20 -20 -20 -20 -20 -20 -20 -20 -20 -20 -20 -20 -20 -20 -20 -20 -20 -20 -20 -20 -20 -20 -20 -20 -20 -20 -20 -20 -20 -20 -20 -20 -20 -20 -20 -20 -20 -20 -20 -20 -20 -20
-20 -20 -20 -20 -20 -20 -20 -20 -20 -20 -20 -20 -20 -20 -20 -20 -20 -20 -20 -20 -20 -20 -20 -20 -20 -20 -20 -20 -20 -20 -20 -20 -20 -20 -20 -20 -20 -20 -20 -20 -20 -20 -20 -20 -20
-20 -20 -20 -20 -20 -20 -20 -20 -20 -20 -20 -20 -20 -20 -20 -20 -20 -20 -20 -20 -20 -20 -20 -20 -20 -20 -20 -20 -20 -20 -20 -20 -20 -20 -20 -20 -20 -20 -20 -20 -20 -20 -20 -20 -20
-20 -20 -20 -20 -20 -20 -20 -20 -20 -20 -20 -20 -20 -20 -20 -20 -20 -20 -20 -20 -20 -20 -20 -20 -20 -20 -20 -20 -20 -20 -20 -20 -20 -20 -20 -20 -20 -20 -20 -20 -20 -20 -20 -20 -20
-20 -20 -20 -20 -20 -20 -20 -20 -20 -20 -20 -20 -20 -20 -20 -20 -20 -20 -20 -20 -20 -20 -20 -20 -20 -20 -20 -20 -20 -20 -20 -20 -20 -20 -20 -20 -20 -20 -20 -20 -20 -20 -20 -20 -20
-20 -20 -20 -20 -20 -20 -20 -20 -20 -20 -20 -20 -20 -20 -20 -20 -20 -20 -20 -20 -20 -20 -20 -20 -20 -20 -20 -20 -20 -20 -20 -20 -20 -20 -20 -20 -20 -20 -20 -20 -20 -20 -20 -20 -20
-20 -20 -20 -20 -20 -20 -20 -20 -20 -20 -20 -20 -20 -20 -20 -20 -20 -20 -20 -20 -20 -20 -20 -20 -20 -20 -20 -20 -20 -20 -20 -20 -20 -20 -20 -20 -20 -20 -20 -20 -20 -20 -20 -20 -20
-20 -20 -20 -20 -20 -20 -20 -20 -20 -20 -20 -20 -20 -20 -20 -20 -20 -20 -20 -20 -20 -20 -20 -20 -20 -20 -20 -20 -20 -20 -20 -20 -20 -20 -20 -20 -20 -20 -20 -20 -20 -20 -20 -20 -20
-20 -20 -20 -20 -20 -20 -20 -20 -20 -20 -20 -20 -20 -20 -20 -20 -20 -20 -20 -20 -20 -20 -20 -20 -20 -20 -20 -20 -20 -20 -20 -20 -20 -20 -20 -20 -20 -20 -20 -20 -20 -20 -20 -20 -20
-20 -20 -20 -20 -20 -20 -20 -20 -20 -20 -20 -20 -20 -20 -20 -20 -20 -20 -20 -20 -20 -20 -20 -20 -20 -20 -20 -20 -20 -20 -20 -20 -20 -20 -20 -20 -20 -20 -20 -2 -15 -20 -20 -20 -20
-20 -20 -20 -20 -20 -20 -20 -20 -20 -20 -20 -20 -20 -20 -20 -20 -20 -20 -20 -20 -20 -20 -20 -20 -20 -20 -20 -20 -20 -20 -20 -20 -20 -20 -20 -20 -20 -20 -19 8 -10 -20 -20 -20 -20
-20 -20 -20 -20 -20 -20 -20 -20 -20 -20 -20 -20 -20 -20 -20 -20 -20 -20 -20 -20 -20 -20 -20 -20 -20 -20 -20 -20 -19 -20 -20 -20 -20 -20 -20 -20 -20 -20 -19 16 -3 -20 -20 -20 -20
-20 -20 -20 -20 -20 -20 -20 -20 -20 -20 -20 -20 -20 -20 -20 -20 -20 -20 -20 -20 -20 -20 -20 -20 -20 -20 -20 -20 -20 -20 -20 3 -1 -20 -20 -20 -20 -20 -15 14 8 -20 -20 -20 -20
-20 -20 -20 -20 -20 -20 -20 -20 -20 -20 -20 -20 -20 -20 -20 -20 -20 -20 -20 -20 -20 -20 -20 -20 -20 -20 -20 -20 -20 -20 -20 -20 -2 5 -2 -9 -7 -20 -16 11 17 -20 -20 -20 -20
-5 -16 -20 -20 -20 -20 -20 -20 -20 -20 -20 -20 -20 -20 -20 -20 -20 -20 -20 -20 -20 -20 -20 -20 -20 -20 -20 -20 -20 -20 -20 -20 -20 -13 -17 -19 -20 -20 -2 1 7 -19 -20 -20 -20
-5 -1 -18 -16 -20 -20 -20 -20 -20 -20 -20 -20 -20 -20 -20 -20 -20 -20 -20 -20 -20 -20 -20 -20 -20 -20 -20 -20 -20 -20 -20 -11 -10 8 10 -20 -20 -20 7 -0 10 -20 -19 -20 -4
15 7 12 -4 -20 -20 -20 -13 -19 -20 -20 -20 -20 -20 -17 -20 -20 -20 -20 -20 -20 -20 -20 12 12 -19 -20 -20 -20 -9 9 14 6 -20 -20 -14 -12 -20 10 15 7 7 -2 -19 -15
14 13 14 9 7 8 0 5 -20 -20 -20 -20 -20 -20 -20 -20 -20 -20 -20 -20 -20 -20 -20 -14 16 15 -20 -15 -13 -12 29 10 -11 -20 -20 -20 -10 -20 2 6 8 13 -3 -20 -20
22 16 22 20 10 -14 -20 -20 -20 -20 -20 -20 -20 -20 -20 -20 -8 -20 -20 -20 -20 -20 -20 -20 -7 -10 -20 -17 11 13 28 24 38 19 9 -20 -15 -20 -12 -8 -4 8 -20 -20 -20
17 5 4 -2 -16 -19 -20 -20 -20 -20 -20 -20 -20 -20 -20 -20 -17 7 10 14 -13 -20 -20 5 7 10 7 -12 31 24 18 37 31 22 19 -20 10 -20 7 10 9 18 8 -19 -20
2 -11 -11 -19 -15 -20 -20 -20 -20 -20 -20 -20 -20 -20 -11 9 1 12 11 1 -20 -20 -20 7 9 -9 -15 -20 -20 10 9 12 30 27 19 13 -12 14 -10 17 16 8 10 0 -20
-14 -8 -11 -20 -20 -20 -20 -20 -20 -20 -20 -20 -20 -20 -20 -20 -13 13 -20 -20 3 -20 -20 -10 -8 14 -20 -20 -20 -20 -7 -13 12 34 11 10 -2 -20 -19 -2 19 25 8 -1 -20
-4 -4 -0 -15 -20 -20 -20 -20 -20 -20 -20 -20 -20 -20 -20 -20 -20 -20 -20 -20 -6 0 -20 6 2 1 4 -20 -20 -19 -20 -20 -20 -2 13 4 -20 -20 -17 -3 17 24 14 -13 -20
Wind_Speed
14 15 16 16 17 17 18 18 18 17 16 16 16 15 15 14 15 8 10 2 4 13 10 11 7 6 5 4 1 2 6 7 6 6 1 2 5 4 2 5 5 5 2 4 9
15 16 17 18 18 19 20 20 19 18 16 17 16 15 15 14 11 13 5 3 5 15 13 14 11 10 5 5 4 7 5 6 3 4 4 3 4 2 6 8 8 8 5 4 12
16 16 17 18 19 20 20 20 19 18 16 15 14 14 15 13 8 1 4 9 12 14 8 8 10 9 8 5 8 5 8 4 6 8 5 5 6 4 7 10 9 9 9 9 13
16 17 18 19 21 22 22 19 19 18 17 14 12 11 12 6 6 3 9 12 12 10 11 9 9 7 6 9 7 9 9 9 4 3 5 8 5 9 10 12 3 5 5 9 14
17 18 20 21 22 24 24 21 21 20 18 15 10 8 7 6 9 5 4 10 14 12 11 10 10 7 8 5 7 13 9 8 10 11 12 11 14 15 15 13 11 8 8 11 14
18 18 19 20 21 23 23 22 22 20 16 12 8 4 5 8 4 5 3 11 11 13 10 9 5 5 3 5 11 2 6 10 8 13 11 14 17 13 12 14 15 14 15 14 15
16 18 19 21 22 23 23 21 21 18 12 7 7 7 6 12 2 5 6 9 6 10 9 8 3 8 2 6 6 7 12 12 13 14 13 8 18 19 19 17 14 14 14 14 15
18 19 20 21 23 24 24 22 17 9 5 5 8 4 8 1 3 3 5 4 5 8 2 6 5 3 5 1 4 9 7 8 5 6 5 8 14 3 3 9 12 12 15 15 15
17 19 20 22 23 24 24 19 8 3 7 10 4 4 6 1 2 4 6 5 9 8 3 5 6 6 4 10 10 9 12 10 9 5 4 13 8 5 3 5 12 11 11 15 15
15 18 19 21 22 22 26 9 3 4 4 5 3 5 4 2 4 4 1 6 3 10 7 7 6 9 11 10 12 10 10 9 11 3 7 10 16 14 16 16 16 15 11 12 15
13 16 19 21 22 19 14 3 3 5 2 6 7 8 6 9 4 2 4 8 5 10 13 12 12 16 19 17 18 12 12 15 15 5 9 14 19 20 16 17 18 19 18 16 16
11 14 18 19 17 13 7 6 4 5 11 3 8 9 9 5 7 8 6 12 11 16 12 8 19 19 13 10 15 17 19 20 18 11 13 16 18 23 22 23 22 21 21 20 18
12 15 19 21 9 1 10 7 6 7 6 2 3 3 1 5 2 2 7 5 9 16 17 21 10 8 15 17 16 17 19 20 20 16 18 20 21 18 10 10 10 13 14 14 15
11 15 18 23 4 4 4 9 4 7 6 3 3 3 2 2 3 1 6 5 6 11 14 16 19 12 12 17 17 18 15 15 15 12 10 2 10 13 12 15 10 9 11 11 10
11 14 16 10 4 1 6 9 3 5 7 4 4 3 3 3 7 3 1 6 10 8 8 7 7 15 21 22 12 15 5 7 7 11 15 15 11 8 4 14 6 3 2 3 5
8 11 14 3 1 2 9 5 5 5 6 3 4 6 8 5 8 5 2 5 5 9 17 22 14 12 16 14 18 3 8 2 6 7 13 16 13 10 6 5 4 2 2 3 5
8 11 5 3 4 9 7 4 5 6 6 6 6 9 11 9 12 11 11 10 10 13 13 14 21 22 15 13 11 16 7 3 7 9 14 2 7 13 7 4 14 12 1 5 8
7 4 1 4 5 7 3 5 8 5 6 8 8 14 8 13 4 13 9 11 9 12 14 16 18 17 18 27 17 22 17 7 10 13 11 2 9 5 2 2 9 5 2 8 11
1 1 1 5 7 4 4 5 4 2 2 8 14 10 4 8 12 10 8 6 8 15 7 10 23 13 12 18 23 18 19 15 6 4 9 9 9 7 5 2 3 4 6 12 13
1 2 2 11 8 3 3 2 2 3 3 4 5 2 11 8 11 11 7 8 5 13 15 5 13 17 17 13 18 22 13 8 5 8 9 10 13 8 5 9 13 2 8 13 13
1 1 6 13 6 1 1 4 3 4 6 5 1 7 8 15 12 12 9 14 6 11 12 6 7 14 14 12 17 15 14 12 8 10 9 8 5 6 8 7 10 1 9 13 14
0 2 5 7 0 2 3 4 2 3 5 2 3 8 9 10 15 12 15 15 15 15 15 2 5 10 15 20 12 9 14 21 13 15 13 10 6 10 8 5 5 2 8 13 14
2 2 4 5 3 4 4 3 1 1 2 2 2 5 8 11 9 5 9 5 13 12 7 8 6 11 15 12 6 5 3 12 12 12 17 13 6 8 13 1 5 3 5 10 14
4 3 1 1 1 7 7 5 6 3 5 5 6 8 8 12 13 9 14 6 10 15 13 13 14 16 16 14 5 7 2 5 7 7 9 16 10 11 8 7 4 2 4 7 11
3 3 1 5 5 6 5 9 7 6 4 4 3 5 4 6 12 14 6 12 18 16 14 6 15 19 22 23 23 16 16 8 6 4 8 12 16 11 14 11 11 4 1 5 9
5 4 2 4 10 8 6 8 7 5 5 4 7 7 8 12 14 17 17 16 13 9 7 6 10 14 19 23 25 27 22 17 13 8 10 9 22 19 11 10 10 9 0 4 9
2 1 3 8 9 7 6 10 9 6 9 10 6 9 14 16 14 16 16 18 14 15 16 14 10 12 19 21 22 25 21 22 19 16 11 13 18 19 17 9 7 9 7 4 3
Wind_Direction
3 359 357 353 348 343 338 334 329 324 319 315 316 318 318 322 310 263 261 305 157 168 154 146 165 152 173 156 174 226 238 239 240 227 187 192 230 165 167 206 191 190 262 72 149
359 357 354 349 344 339 335 331 327 321 317 312 312 314 315 325 297 274 253 203 218 163 166 169 170 168 173 178 182 232 247 241 238 215 228 266 263 243 224 204 203 201 197 153 169
358 356 351 345 340 337 335 331 325 319 315 310 310 314 314 314 278 123 63 196 180 178 185 185 167 184 194 189 191 181 257 252 234 251 261 249 239 220 239 231 239 222 213 190 194
354 351 347 344 340 334 332 326 323 315 307 301 301 306 311 286 305 92 331 176 174 179 163 166 181 195 218 211 192 237 243 252 282 244 250 249 271 249 239 251 262 270 277 212 207
351 350 347 343 338 333 329 325 322 317 308 296 286 290 279 237 258 17 343 161 163 179 186 188 192 204 223 221 209 235 248 246 253 270 263 264 254 259 258 247 249 247 229 225 227
348 347 344 339 334 329 323 320 320 313 299 289 267 242 242 252 64 7 152 160 174 186 185 193 236 218 254 236 234 336 259 259 252 263 258 254 259 247 246 247 250 237 235 233 227
341 341 339 335 333 330 319 320 323 319 313 295 190 204 237 260 24 349 167 193 182 199 194 204 192 209 184 246 265 275 275 268 250 245 255 263 260 246 254 254 250 245 238 234 230
338 339 337 336 334 329 319 322 319 316 21 106 161 211 258 134 331 249 187 170 184 188 227 195 180 198 247 325 239 268 260 268 126 163 173 206 270 256 233 226 239 254 242 233 226
336 335 336 337 336 328 321 326 305 48 112 131 190 256 272 132 282 3 219 209 182 190 162 145 206 242 201 237 258 217 269 242 280 215 197 207 266 164 168 252 282 265 242 234 229
335 334 334 335 335 326 324 321 15 200 217 239 232 237 223 30 332 342 192 207 185 171 174 200 199 221 230 225 240 273 247 253 266 161 217 229 253 259 272 278 274 272 252 231 230
333 332 331 335 335 327 331 254 313 197 314 282 312 288 300 327 239 180 173 176 160 203 210 204 217 217 233 224 258 272 279 277 278 255 289 266 274 279 278 271 259 257 254 236 230
323 328 328 331 333 331 352 59 21 328 304 311 271 267 280 291 270 230 190 195 197 213 210 204 232 239 241 253 238 248 265 272 281 291 273 277 283 287 280 264 255 255 254 246 230
329 333 331 331 317 18 65 56 319 177 251 295 251 279 22 181 274 292 216 237 226 224 210 230 237 241 221 223 234 240 252 266 276 290 286 271 276 264 282 265 256 256 257 259 239
331 334 337 330 255 355 57 351 327 202 276 127 132 114 168 254 210 237 228 243 212 255 237 260 261 217 214 235 230 253 252 259 271 278 272 347 296 293 286 282 267 278 253 232 217
332 335 333 356 330 42 349 338 139 219 280 73 87 87 322 308 328 66 230 215 247 221 198 248 227 228 235 235 217 247 201 246 260 267 278 260 262 265 257 283 193 30 37 200 212
331 333 324 235 256 7 322 319 210 230 244 71 65 20 2 17 8 333 290 243 271 248 236 255 263 256 249 253 229 222 176 224 265 264 249 252 227 268 234 241 254 222 39 159 155
327 328 310 310 338 324 310 220 231 242 15 33 353 348 333 340 324 353 324 291 286 290 252 246 242 236 234 238 219 208 201 202 246 223 260 56 233 256 252 257 298 309 324 160 155
322 321 37 41 322 310 246 216 240 50 17 10 338 320 332 2 21 341 314 299 56 334 273 269 271 219 215 223 214 208 207 179 227 247 255 120 238 238 154 256 286 284 245 156 161
309 231 257 354 329 291 237 221 351 47 10 354 333 327 328 360 340 345 354 11 44 31 325 315 254 264 269 233 225 203 221 227 258 239 272 243 244 262 249 236 229 311 177 165 153
155 224 36 337 324 265 240 111 130 33 18 355 314 57 302 331 317 336 306 51 353 32 356 317 288 270 277 283 255 224 204 174 175 215 218 230 241 245 35 339 341 293 172 159 149
45 178 17 341 307 308 145 75 115 89 32 5 334 281 283 307 285 293 273 304 15 353 336 318 279 277 316 243 238 212 225 226 199 229 232 228 235 148 123 347 331 42 167 161 158
45 187 16 333 219 24 117 107 86 48 14 303 275 273 275 292 286 272 266 258 326 338 314 278 289 279 290 286 324 292 283 226 207 190 228 257 178 147 83 39 356 97 162 168 163
123 21 7 296 166 145 122 111 68 145 88 243 248 257 292 280 283 268 278 310 312 307 305 328 273 288 269 240 137 42 10 350 328 304 214 208 213 122 102 82 66 93 169 180 174
137 164 78 53 16 151 148 158 165 168 231 234 246 256 276 282 269 271 280 296 325 297 286 283 257 252 265 292 320 271 301 75 335 282 260 217 128 145 82 339 346 318 211 190 191
200 157 311 159 164 149 164 162 167 188 221 246 239 234 287 283 293 273 275 305 299 280 279 264 269 266 258 267 281 263 277 255 242 324 290 1 311 313 325 313 326 23 180 195 194
144 155 120 95 124 160 186 185 181 162 190 218 245 310 289 271 265 291 296 286 276 276 264 260 273 276 278 271 269 276 274 269 252 230 248 294 295 284 285 299 319 326 225 243 213
136 68 140 149 171 204 194 168 182 178 228 230 264 294 283 282 295 284 275 271 263 272 268 271 263 267 271 267 268 259 262 259 258 231 220 262 269 277 282 297 308 327 329 277 256